[Iaude] MPEC V61: 2000 AC229 [a=4.14,e=0.56,i=52.3,H=16.9]

mpec at si.edu mpec at si.edu
Mon Nov 7 20:12:11 EST 2016


M.P.E.C. 2016-V61                                Issued 2016 Nov. 8, 01:08 UT
 
     The Minor Planet Electronic Circulars contain information on unusual
         minor planets and routine data on comets.  They are published
    on behalf of Division F of the International Astronomical Union by the
          Minor Planet Center, Smithsonian Astrophysical Observatory,
                          Cambridge, MA 02138, U.S.A.

             Prepared using the Tamkin Foundation Computer Network

                              MPC at CFA.HARVARD.EDU
            URL http://www.minorplanetcenter.net/    ISSN 1523-6714


                                  2000 AC229
 
Additional Observations:
     K00AM9C  S2016 11 05.23615 08 41 33.66 -01 51 31.1          19   RLEV061C51
     K00AM9C  s2016 11 05.23615 1 - 5912.2436 + 3350.0436 -  989.2411   EV061C51
     K00AM9C  S2016 11 05.49809 08 41 54.39 -01 48 21.3                LEV061C51
     K00AM9C  s2016 11 05.49809 1 - 5935.3519 + 3320.9867 -  947.7809   EV061C51
     K00AM9C  S2016 11 05.62912 08 42 04.63 -01 46 45.9                LEV061C51
     K00AM9C  s2016 11 05.62912 1 - 5939.1342 + 3308.3746 -  968.2436   EV061C51
     K00AM9C  S2016 11 05.82560 08 42 20.18 -01 44 19.0                LEV061C51
     K00AM9C  s2016 11 05.82560 1 - 5952.4270 + 3287.4555 -  957.8607   EV061C51
     K00AM9C  S2016 11 05.89105 08 42 25.35 -01 43 31.5                LEV061C51
     K00AM9C  s2016 11 05.89105 1 - 5961.8886 + 3279.0910 -  926.9794   EV061C51
     K00AM9C  S2016 11 05.95663 08 42 30.49 -01 42 43.1                LEV061C51
     K00AM9C  s2016 11 05.95663 1 - 5956.0931 + 3274.8151 -  978.4089   EV061C51
     K00AM9C  S2016 11 06.08754 08 42 40.69 -01 41 01.2                LEV061C51
     K00AM9C  s2016 11 06.08754 1 - 5975.0015 + 3258.0570 -  916.6845   EV061C51
     K00AM9C  S2016 11 06.08766 08 42 40.85 -01 41 04.6                LEV061C51
     K00AM9C  s2016 11 06.08766 1 - 5959.6720 + 3262.1464 -  998.9745   EV061C51
     K00AM9C  S2016 11 06.15312 08 42 45.94 -01 40 15.4                LEV061C51
     K00AM9C  s2016 11 06.15312 1 - 5969.2656 + 3253.8391 -  968.1178   EV061C51
     K00AM9C  S2016 11 06.34960 08 43 01.31 -01 37 49.5                LEV061C51
     K00AM9C  s2016 11 06.34960 1 - 5982.3389 + 3232.8043 -  957.8728   EV061C51
     K00AM9C  S2016 11 06.61153 08 43 21.79 -01 34 31.2                LEV061C51
     K00AM9C  s2016 11 06.61153 1 - 6004.6243 + 3203.2059 -  916.8051   EV061C51
 
Observer details:
C51 WISE.  Measurers A. K. Mainzer, J. M. Bauer, T. Grav, J. R. Masiero,
    J. W. Dailey, R. M. Cutri, E. L. Wright, C. Nugent, S. Sonnett, E. Kramer.
 
First and last observations above in comparison with prediction:
Residuals in seconds of arc (or two decimals in degrees), reference and Delta-T
161105 C51 0.60- 0.61-    161106 C51 0.61- 0.62-    MPC 39582   +1.5 day
 
Orbital elements:
2000 AC229
Epoch 2016 July 31.0 TT = JDT 2457600.5                 MPC
M 344.02013              (2000.0)            P               Q
n   0.11702823     Peri.  358.41243     -0.37264465     -0.57402049
a   4.1394466      Node   112.85527     +0.85988192     -0.50902143
e   0.5588940      Incl.   52.30309     +0.34891122     +0.64140288
P   8.42           H   16.9           G   0.15           U   2
Residuals in seconds of arc
000108 704  0.6-  0.4-    000111 670  1.0+  0.6-    000125 540  0.3-  0.2-
000108 704  0.5-  0.5-    000111 422  0.5+  0.4-    000127 360  0.3+  0.3-
000108 704  0.2-  0.2+    000111 587  0.5-  1.0+    000127 360  0.6+  0.0
000108 704  0.5-  0.1+    000111 587  1.5+  0.7+    000127 360  0.3-  0.4+
000109 046  0.2+  0.3+    000111 587  0.5+  0.3+    000128 402  0.3-  1.2-
000109 046  0.5-  0.1-    000111 557  0.1+  0.1-    000128 402  0.1-  1.3-
000109 046  0.0   0.0     000111 557  0.1-  0.6+    000128 402  0.6-  0.8-
000109 046  0.1-  0.4+    000112 046  0.9+  0.2+    000130 704  0.3+  0.3+
000109 704  0.1-  0.3-    000112 046  1.0+  0.2+    000130 704  0.1-  0.2-
000109 704  0.5-  0.3+    000112 046  0.1-  0.0     000130 704  0.0   0.3+
000109 711  0.3-  0.2+    000112 046  0.6+  0.2-    000130 704  0.0   0.4+
000109 711  0.4-  0.1+    000112 046  0.4+  0.2+    000130 704  0.1-  0.0
000109 704  0.1-  0.5+    000112 046  0.2+  0.4+    000209 413  0.0   0.3+
000109 711  1.1-  0.1-    000112 046  0.3+  0.0     000209 413  0.1+  0.3+
000110 704  0.6-  0.1+    000112 046  0.1+  0.2+    000210 413  0.0   0.1-
000110 704  0.9-  1.4+    000114 046  0.3+  0.5+    000210 413  0.0   0.4+
000110 704  0.2+  0.2+    000114 046  0.1+  0.6+    000226 413  0.2-  0.1+
000110 711  0.3+  0.5-    000114 046  0.3+  0.1-    000226 413  0.6+  0.6+
000110 711  0.5+  0.5-    000114 046  0.3+  0.2+    161105 C51  0.3-  0.4+
000110 711  0.6+  0.1-    000114 557  0.0   0.1+    161105 C51  0.1+  0.8-
000110 704  0.1+  0.1+    000114 557  0.1-  0.3+    161105 C51 (1.3-  1.6-)
000111 704  0.0   0.1+    000114 557  0.1-  0.2+    161105 C51  0.2-  0.5+
000111 651  0.0   0.3-    000114 557  0.0   0.8+    161105 C51  0.1+  0.4-
000111 651  0.1+  0.3-    000115 693  0.7-  1.9+    161105 C51  0.1-  0.7-
000111 704  0.3-  0.5-    000115 693 (1.0-  2.2+)   161106 C51 (1.3-  3.8+)
000111 704  0.7-  0.6+    000125 402  0.1-  1.3-    161106 C51  1.0+  0.3+
000111 711 (0.0   2.0-)   000125 402  0.6-  0.1-    161106 C51  0.3+  0.6+
000111 711  0.5-  1.9-    000125 402  0.3-  0.0     161106 C51  0.1-  0.6-
000111 711  0.2-  1.8-    000125 540  0.1-  0.4-    161106 C51  0.0   0.1+
000111 704  0.3+  0.3+    000125 540  0.1+  0.4-
000111 670  0.5+  0.6-    000125 540  0.4-  0.0

Ephemeris:
2000 AC229               a,e,i = 4.14, 0.56, 52                  q = 1.8259
Date    TT    R. A. (2000) Decl.     Delta      r     Elong.  Phase     V
2016 10 09    08 01 35.4 -05 39 51   1.9548  1.9309    73.8    29.8    21.1
...
2016 10 24    08 24 31.7 -03 55 35   1.7536  1.8900    81.9    31.4    20.8
...
2016 11 01    08 35 51.8 -02 39 40   1.6430  1.8720    86.8    32.0    20.7
...
2016 11 07    08 43 52.1 -01 29 37   1.5594  1.8604    90.9    32.2    20.6
2016 11 08    08 45 09.5 -01 16 38   1.5455  1.8586    91.6    32.2    20.6
2016 11 09    08 46 26.1 -01 03 16   1.5315  1.8569    92.3    32.2    20.5
...
2016 11 15    08 53 47.8 +00 26 13   1.4484  1.8474    96.8    32.1    20.4
...
2016 11 23    09 02 44.3 +02 54 14   1.3395  1.8374   103.3    31.5    20.2
...
2016 12 08    09 16 04.5 +09 28 22   1.1504  1.8270   117.4    28.6    19.8

A. U. Tomatic                (C) Copyright 2016 MPC           M.P.E.C. 2016-V61




More information about the Iaude mailing list